| time (UTC) | temp C | wind direction | speed KPH | gust KPH | rain 1hr cm | rain 24hr cm | rain mn cm | humidity % | barometer mb |
| 20260507162605 | 17 | 330 | 1.6 | 1.6 | 0.00 | 0.00 | 0.30 | 62 | 1014.9 |
| 20260507155605 | 17 | 317 | 3.2 | 3.2 | 0.00 | 0.00 | 0.30 | 62 | 1014.9 |
| 20260507152606 | 18 | 300 | 4.8 | 6.4 | 0.00 | 0.00 | 0.30 | 59 | 1015.2 |
| 20260507145606 | 17 | 312 | 4.8 | 4.8 | 0.00 | 0.00 | 0.30 | 59 | 1015.2 |
| 20260507142604 | 17 | 307 | 3.2 | 4.8 | 0.00 | 0.00 | 0.30 | 61 | 1015.2 |
| 20260507135606 | 17 | 288 | 4.8 | 4.8 | 0.00 | 0.00 | 0.30 | 60 | 1015.5 |
| 20260507132606 | 17 | 329 | 1.6 | 1.6 | 0.00 | 0.00 | 0.30 | 61 | 1015.9 |
| 20260507122605 | 16 | 69 | 1.6 | 1.6 | 0.00 | 0.00 | 0.30 | 62 | 1015.9 |
| 20260507115606 | 16 | 320 | 1.6 | 1.6 | 0.00 | 0.00 | 0.30 | 64 | 1016.2 |
| 20260507112605 | 16 | 301 | 1.6 | 1.6 | 0.00 | 0.00 | 0.30 | 66 | 1016.2 |
| 20260507102606 | 15 | 70 | 1.6 | 1.6 | 0.00 | 0.00 | 0.30 | 68 | 1016.5 |
| 20260507095604 | 13 | 336 | 1.6 | 1.6 | 0.00 | 0.00 | 0.33 | 78 | 1016.9 |
| 20260507092604 | 12 | 253 | 1.6 | 1.6 | 0.00 | 0.00 | 0.36 | 81 | 1016.9 |
| 20260507085605 | 12 | 354 | 0.0 | 0.0 | 0.00 | 0.00 | 0.36 | 85 | 1016.9 |
| 20260507082606 | 11 | 84 | 1.6 | 1.6 | 0.00 | 0.00 | 0.38 | 90 | 1016.9 |
| 20260507075605 | 10 | 198 | 0.0 | 0.0 | 0.00 | 0.00 | 0.48 | 94 | 1016.9 |
| 20260507072604 | 8 | 224 | 0.0 | 0.0 | 0.00 | 0.00 | 0.66 | 99 | 1016.5 |
| 20260507065606 | 8 | 263 | 3.2 | 3.2 | 0.00 | 0.00 | 0.81 | 99 | 1016.5 |
| 20260507055606 | 8 | 228 | 0.0 | 0.0 | 0.00 | 0.00 | 1.24 | 99 | 1016.2 |
| 20260507052605 | 8 | 228 | 0.0 | 0.0 | 0.00 | 0.00 | 1.52 | 99 | 1015.9 |
| 20260507042606 | 7 | 236 | 0.0 | 0.0 | 0.00 | 0.00 | 1.80 | 99 | 1015.5 |
| 20260507032606 | 7 | 156 | 0.0 | 0.0 | 0.00 | 0.00 | 2.13 | 99 | 1015.5 |
| 20260507025605 | 7 | 72 | 0.0 | 0.0 | 0.00 | 0.00 | 2.18 | 99 | 1015.2 |
| 20260507015606 | 8 | 230 | 0.0 | 0.0 | 0.00 | 0.00 | 2.18 | 99 | 1015.2 |
| 20260507005604 | 8 | 224 | 0.0 | 0.0 | 0.00 | 0.00 | 2.18 | 99 | 1015.2 |
| 20260507002605 | 8 | 224 | 0.0 | 0.0 | 0.00 | 0.00 | 2.18 | 99 | 1015.2 |
| 20260506235606 | 8 | 229 | 0.0 | 0.0 | 0.00 | 0.00 | 2.18 | 99 | 1015.2 |
| 20260506225606 | 9 | 218 | 0.0 | 0.0 | 0.00 | 0.00 | 2.18 | 99 | 1014.9 |
| 20260506222606 | 9 | 230 | 0.0 | 0.0 | 0.00 | 0.00 | 2.21 | 97 | 1014.9 |
| 20260506215605 | 9 | 230 | 0.0 | 0.0 | 0.00 | 2.18 | 2.21 | 97 | 1014.9 |
| 20260506212604 | 9 | 228 | 0.0 | 0.0 | 0.00 | 2.18 | 2.21 | 97 | 1014.5 |
| 20260506205606 | 9 | 234 | 0.0 | 0.0 | 0.00 | 2.18 | 2.24 | 97 | 1014.5 |
| 20260506202605 | 9 | 234 | 0.0 | 0.0 | 0.00 | 2.18 | 2.24 | 95 | 1014.2 |
| 20260506195606 | 10 | 235 | 0.0 | 0.0 | 0.00 | 2.18 | 2.24 | 94 | 1013.5 |
| 20260506185606 | 10 | 268 | 0.0 | 0.0 | 0.00 | 2.18 | 2.36 | 86 | 1012.8 |
| 20260506182605 | 10 | 328 | 1.6 | 1.6 | 0.00 | 2.18 | 2.39 | 86 | 1012.8 |
| 20260506175606 | 10 | 267 | 1.6 | 1.6 | 0.08 | 2.18 | 2.41 | 88 | 1012.5 |
| 20260506172604 | 11 | 79 | 1.6 | 1.6 | 0.30 | 2.18 | 2.67 | 87 | 1011.5 |